Gadsden, AL

10:05 AM CST on December 15, 2019 (GMT -0600)
Gadsden Municipal

Weather History for KGAD - June, 2019

Change the Weather History Date:

Thursday, June 13, 2019

  Actual Average Record
Temperature  
Mean Temperature 68 °F -  
Max Temperature 81 °F 82 °F 98 °F (1948)
Min Temperature 55 °F 63 °F 58 °F (1950)
Cooling Degree Days 2    
Growing Degree Days 18 (Base 50)    
Moisture  
Dew Point 58 °F    
Average Humidity 67    
Maximum Humidity 100    
Minimum Humidity 40    
Precipitation  
Precipitation 0.00 in - - ()
Sea Level Pressure  
Sea Level Pressure 30.01 in    
Wind  
Wind Speed 3 mph ()    
Max Wind Speed 12 mph    
Max Gust Speed 20 mph    
Visibility 8.9 miles    
Events      
Averages and records for this station are not official NWS values.
T = Trace of Precipitation, MM = Missing Value Source: Averaged Metar Reports

Daily Weather History Graph

Daily Weather History Graph

Search for Another Location

Airport or City:

Astronomy

Jun. 13, 2019 Rise Set
Actual Time 5:32 AM CDT 7:56 PM CDT
Civil Twilight 5:03 AM CDT 8:25 PM CDT
Nautical Twilight 4:27 AM CDT 9:01 PM CDT
Astronomical Twilight 3:48 AM CDT 9:40 PM CDT
Moon 4:21 PM CDT (6/13) 3:05 AM CDT (6/13)
Length of Visible Light 15h 21m
Length of Day
14h 23m
Waxing Gibbous, 85% of the Moon is Illuminated
Jun 13
Waxing Gibbous
Jun 17
Full
Jun 25
Last Quarter
Jul 2
New
Jul 9
First Quarter

Hourly Weather History & Observations

Time (CDT) Temp. Heat Index Dew Point Humidity Pressure Visibility Wind Dir Wind Speed Gust Speed Precip Events Conditions
12:56 AM 63.0 °F - - N/A% 29.93 in 10.0 mi WSW 3.5 mph - N/A   Clear
1:56 AM 62.1 °F - - N/A% 29.93 in 10.0 mi SSW 3.5 mph - N/A   Clear
2:56 AM 60.1 °F - - N/A% 29.93 in 10.0 mi Calm Calm - N/A   Clear
3:56 AM 57.9 °F - - N/A% 29.94 in 10.0 mi Calm Calm - N/A   Clear
4:12 AM 57.2 °F - - N/A% 29.94 in 1.8 mi Calm Calm - N/A   Clear
4:33 AM 57.2 °F - - N/A% 29.94 in 3.0 mi Calm Calm - N/A   Clear
4:56 AM 57.0 °F - - N/A% 29.95 in 10.0 mi Calm Calm - N/A   Clear
5:32 AM 57.2 °F - - N/A% 29.96 in 1.0 mi Calm Calm - N/A   Clear
5:42 AM 55.4 °F - - N/A% 29.97 in 2.5 mi Calm Calm - N/A   Clear
5:51 AM 55.4 °F - - N/A% 29.97 in 10.0 mi Calm Calm - N/A   Clear
5:56 AM 55.9 °F - - N/A% 29.98 in 10.0 mi Calm Calm - N/A   Clear
6:56 AM 64.0 °F - 63.0 °F 96% 29.99 in 10.0 mi West 5.8 mph - N/A   Clear
7:56 AM 66.9 °F - 62.1 °F 84% 30.01 in 10.0 mi WNW 5.8 mph - N/A   Clear
8:56 AM 71.1 °F - 62.1 °F 73% 30.03 in 10.0 mi NW 5.8 mph - N/A   Clear
9:56 AM 73.0 °F - 62.1 °F 68% 30.03 in 10.0 mi WNW 6.9 mph - N/A   Scattered Clouds
10:56 AM 75.0 °F - 59.0 °F 57% 30.04 in 10.0 mi WNW 11.5 mph - N/A   Clear
11:56 AM 75.9 °F - 57.0 °F 52% 30.04 in 10.0 mi NW 8.1 mph - N/A   Clear
12:56 PM 78.1 °F - 57.9 °F 50% 30.04 in 10.0 mi NNW 10.4 mph - N/A   Clear
1:56 PM 78.1 °F - 57.0 °F 48% 30.05 in 10.0 mi WNW 11.5 mph 19.6 mph N/A   Mostly Cloudy
2:56 PM 79.0 °F - 55.9 °F 45% 30.05 in 10.0 mi NW 9.2 mph - N/A   Partly Cloudy
3:56 PM 80.1 °F 80.1 °F 55.0 °F 42% 30.04 in 10.0 mi NW 10.4 mph 18.4 mph N/A   Mostly Cloudy
4:56 PM 79.0 °F - 53.1 °F 40% 30.04 in 10.0 mi WNW 10.4 mph 17.3 mph N/A   Scattered Clouds
5:56 PM 78.1 °F - 54.0 °F 43% 30.05 in 10.0 mi WNW 4.6 mph - N/A   Clear
6:56 PM 77.0 °F - 55.0 °F 47% 30.06 in 10.0 mi NNW 4.6 mph - N/A   Clear
7:56 PM 70.0 °F - 57.9 °F 65% 30.06 in 10.0 mi WSW 3.5 mph - N/A   Clear
8:56 PM 64.0 °F - 62.1 °F 93% 30.08 in 10.0 mi Calm Calm - N/A   Clear
9:56 PM 61.0 °F - 61.0 °F 100% 30.11 in 10.0 mi Calm Calm - N/A   Partly Cloudy
10:56 PM 59.0 °F - 59.0 °F 100% 30.13 in 10.0 mi Calm Calm - N/A   Clear
11:56 PM 57.9 °F - 57.9 °F 100% 30.14 in 10.0 mi Calm Calm - N/A   Clear